Home > Weather > Guilin > Past weeks

Flag for China Past Weather in Guilin, Guangxi, China — Yesterday and Last 2 Weeks

Now
95 °F

Scattered clouds.


Feels Like: 110 °F
Forecast: 76 / 90 °F
Wind: 3 mph from North

Location: Guilin Airport

Current Time: Jun 26, 2016 at 2:39:06 PM

Latest Report: Jun 26, 2016 at 2:00 PM


Visibility: N/A

Pressure: 29.74 "Hg

Humidity: 56%

Dew Point: 77 °F

Location of GuilinLocation

Past Weather in Guilin — Graph

°F

Guilin Temperature Yesterday

Maximum temperature yesterday: 95 °F (at 3:00 PM)
Minimum temperature yesterday: 77 °F (at 5:00 AM)
Average temperature yesterday: 85 °F

High & Low Weather Summary for the Past Weeks

 TemperatureHumidityPressure
High95 °F (Jun 25, 3:00 PM)100% (Jun 11, 10:00 PM)29.86 "Hg (Jun 11, 10:00 PM)
Low66 °F (Jun 16, 1:00 AM)49% (Jun 23, 2:00 PM)29.56 "Hg (Jun 14, 4:00 PM)
Average81 °F86%29.72 "Hg
* Reported Jun 11 1:00 PM — Jun 26 1:00 PM, Guilin, Weather by CustomWeather, © 2016

Note: Actual official high and low records may vary slightly from our data, if they occured in-between our weather recording intervals... More about our weather records

Advertising

Guilin Weather History for the Previous 24 Hours

Scroll right to see more
 ConditionsComfort  
Time TempWeatherWind HumidityBarometerVisibility
1:00 PM
Sun, Jun 26
93 °FPassing clouds.3 mph59%29.77 "Hg5 mi
12:00 PM91 °FScattered clouds.3 mph63%29.80 "Hg3 mi
11:00 AM90 °FHaze.3 mph67%29.83 "Hg3 mi
10:00 AM86 °FHaze.3 mph75%29.83 "Hg2 mi
9:00 AM84 °FFog.3 mph79%29.86 "Hg2 mi
8:00 AM82 °FFog.6 mph79%29.86 "Hg2 mi
7:00 AM79 °FFog.6 mph89%29.83 "Hg1 mi
6:00 AM79 °FFog.6 mph89%29.83 "Hg2 mi
5:00 AM79 °FFog.6 mph89%29.83 "Hg2 mi
4:00 AM79 °FFog.6 mph89%29.80 "Hg2 mi
3:00 AM79 °FFog.1 mph94%29.80 "Hg3 mi
2:00 AM79 °FPassing clouds.1 mph94%29.80 "Hg5 mi
1:00 AM79 °FPassing clouds.3 mph94%29.80 "HgN/A
12:00 AM79 °FPassing clouds.3 mph94%29.80 "HgN/A
11:00 PM
Sat, Jun 25
81 °FPassing clouds.1 mph89%29.80 "HgN/A
10:00 PM81 °FPassing clouds.1 mph89%29.77 "HgN/A
9:00 PM84 °FPassing clouds.No wind79%29.77 "HgN/A
8:00 PM86 °FPassing clouds.1 mph75%29.74 "HgN/A
7:00 PM91 °FPassing clouds.3 mph59%29.74 "HgN/A
6:00 PM93 °FPassing clouds.8 mph53%29.71 "HgN/A
5:00 PM95 °FPassing clouds.10 mph50%29.71 "HgN/A
4:00 PM95 °FPassing clouds.10 mph50%29.71 "HgN/A
3:00 PM95 °FScattered clouds.8 mph50%29.74 "HgN/A
2:00 PM93 °FScattered clouds.1 mph59%29.77 "HgN/A
Weather by CustomWeather, © 2016

See weather overviewHow to use our weather pages